User: anonymous   Login
Location: Unspecified
(0.0000°N, 0.0000°E)
Time: 00:24:53
(UTC+00:00)
Language:

Sirio 1 - Orbit

View from above orbital plane
View from above orbital plane
View from above satellite
View from above satellite

Ground track
Ground track

The orbit data is extracted from the following two-line orbital elements,

1 10294U 77080A   18265.58080323 -.00000100 +00000-0 +00000-0 0  9991
2 10294 013.0014 327.0153 0005483 065.5638 252.3779 01.00271530089596
Epoch (UTC): 22 September 2018 13:56:21
Eccentricity: 0.0005483
inclination: 13.0014°
perigee height: 35763 km
apogee height: 35809 km
right ascension of ascending node: 327.0153°
argument of perigee: 65.5638°
revolutions per day: 1.00271530
mean anomaly at epoch: 252.3779°
orbit number at epoch: 8959

The dashed part of the orbit path shows where the satellite is in the earth's shadow,  

DLR